Home > Time Zones > World Clock > Weather > India > Alwar > Past weeks

Flag for India Weather past 2 weeks in Alwar, Rajasthan, India

Now
70 °F

Thunderstorms. Mostly cloudy.


Feels Like: 70 °F
Forecast: 70 / 93 °F
Wind: 6 mph from North

Location: Jaipur / Sanganer


UV Index: 7 (High)

Visibility: 1 mi


Pressure: 29.95 "Hg

Humidity: 83%

Dew point: 64 °F

Location of AlwarLocation

Historic Weather in Alwar

°F

Alwar temperature yesterday

Maximum temperature yesterday: 88 °F (at 1:00 PM)
Minimum temperature yesterday: 72 °F (at 4:30 AM)
Average temperature yesterday: 80 °F

Past Weeks' High & Low Weather Summary

 TemperatureHumidityPressure
High100 °F (Apr 13, 2:00 PM)83% (Apr 19, 5:30 AM)29.98 "Hg (Apr 19, 5:30 AM)
Low70 °F (Apr 4, 6:00 AM)6% (Apr 12, 2:00 PM)29.53 "Hg (Apr 17, 2:00 PM)
Average85 °F28%29.86 "Hg
* Reported Apr 4 6:00 AM — Apr 19 5:30 AM, Alwar, Weather by CustomWeather, © 2014

Note: Actual official high and low records may vary slightly from our data, if they occured in-between our weather recording intervals... More about our weather records

Advertising

Historic Weather Conditions — Data for Previous 24 hours

 ConditionsComfort  
Time TempWeatherWind HumidityBarometerVisibility
5:30 AM
Apr 19
72 °FThunderstorms. Mostly cloudy.10 mph83%29.98 "Hg1 mi
5:00 AM73 °FThunderstorms. Passing clouds.5 mph74%29.95 "Hg1 mi
4:00 AM73 °FPassing clouds.3 mph78%29.89 "Hg1 mi
3:00 AM75 °FPassing clouds.3 mph69%29.89 "Hg1 mi
2:00 AM75 °FLight rain. Passing clouds.6 mph69%29.89 "Hg1 mi
12:00 AM77 °FPassing clouds.3 mph51%29.92 "Hg2 mi
11:30 PM
Apr 18
77 °FPassing clouds.5 mph54%29.92 "Hg2 mi
11:00 PM79 °FPassing clouds.No wind51%29.92 "Hg2 mi
10:00 PM79 °FPassing clouds.No wind51%29.92 "Hg2 mi
9:30 PM79 °FPassing clouds.No wind48%29.89 "Hg2 mi
9:00 PM79 °FPassing clouds.2 mph48%29.89 "Hg2 mi
8:30 PM81 °FPassing clouds.No wind45%29.89 "Hg2 mi
7:00 PM82 °FScattered clouds.1 mph40%29.86 "Hg2 mi
6:00 PM84 °FScattered clouds.1 mph35%29.86 "Hg2 mi
5:00 PM86 °FScattered clouds.9 mph31%29.89 "Hg2 mi
4:00 PM88 °FScattered clouds.7 mph29%29.89 "Hg2 mi
3:00 PM86 °FScattered clouds.7 mph35%29.89 "Hg2 mi
2:00 PM86 °FScattered clouds.7 mph38%29.89 "Hg2 mi
1:00 PM88 °FScattered clouds.6 mph38%29.95 "Hg2 mi
12:00 PM82 °FScattered clouds.5 mph48%29.95 "Hg2 mi
11:00 AM82 °FScattered clouds.8 mph51%29.95 "Hg2 mi
10:00 AM79 °FScattered clouds.13 mph58%29.92 "Hg2 mi
9:00 AM75 °FScattered clouds.12 mph61%29.92 "Hg2 mi
7:00 AM72 °FScattered clouds.8 mph73%29.86 "Hg1 mi
6:00 AM72 °FPassing clouds.12 mph69%29.83 "Hg1 mi
Weather by CustomWeather, © 2014

See weather overview